Temp
56 56 55 56 55 55 50 42 35 47 50 37 37 35 37 43 43 47 47 48 44 39 39 37 36 36 43 50 50 41 47 38 27 32 41 44 40 35 34 23 21 25 22 29
55 55 55 55 55 56 44 39 40 49 47 33 35 38 41 44 44 47 49 47 49 47 41 38 42 44 48 51 49 42 46 34 22 30 35 42 37 38 39 36 32 27 24 30
55 55 54 55 55 56 43 37 31 38 41 42 39 37 40 38 47 47 51 49 49 45 45 45 42 39 46 48 48 51 50 37 27 24 27 35 29 35 39 37 29 29 31 35
55 54 54 54 54 55 45 40 37 38 29 37 38 42 41 40 40 49 50 47 47 45 39 41 40 41 42 46 48 49 44 27 29 35 37 36 35 36 37 33 35 30 36 37
54 54 53 54 54 54 44 39 38 41 38 40 39 40 38 42 44 44 44 44 46 46 41 42 39 44 41 39 41 41 42 31 33 29 36 36 32 37 38 37 37 38 39 38
54 53 53 54 54 52 43 44 46 42 39 38 38 39 43 43 45 47 47 46 44 42 43 46 45 50 48 46 43 42 39 33 26 21 36 34 29 35 38 39 42 42 35 42
54 53 53 53 53 52 45 44 42 40 34 39 45 44 46 44 44 42 46 47 44 47 51 49 47 45 45 47 46 46 35 34 29 25 29 22 39 46 45 41 42 44 45 46
53 53 53 53 53 53 41 46 41 39 36 39 44 45 44 44 44 43 45 46 47 50 46 39 38 38 36 39 44 43 44 38 31 27 23 33 40 42 41 38 39 45 45 45
53 53 53 53 53 53 42 46 46 41 37 40 45 45 48 39 37 40 43 47 48 47 42 38 29 31 37 31 37 44 43 43 35 32 26 24 38 44 46 44 35 46 46 46
53 53 53 53 53 53 44 41 47 42 37 44 43 42 44 50 43 39 43 43 43 45 37 34 32 31 37 31 31 34 36 36 32 32 30 33 43 46 46 32 36 44 45 46
53 53 53 53 53 53 44 39 47 42 37 38 45 47 44 42 43 37 41 40 42 39 36 35 35 34 38 33 37 34 34 32 33 33 30 26 47 44 39 45 44 45 44 42
53 53 53 53 52 53 50 36 44 45 38 39 44 46 46 47 48 47 43 43 42 43 38 37 39 37 37 34 30 41 35 38 35 36 35 46 48 49 47 47 45 44 43 42
52 53 53 52 53 53 50 38 39 38 35 36 38 41 50 51 52 56 43 43 47 45 46 41 41 37 40 34 34 37 45 49 43 41 46 47 49 45 45 44 43 45 45 42
53 52 53 52 52 52 51 38 40 38 35 32 37 50 48 51 53 54 53 51 49 47 46 41 40 38 41 37 41 39 43 47 44 40 46 44 43 43 43 43 44 44 45 43
52 51 52 51 52 52 47 40 41 43 34 33 35 42 47 49 50 52 52 50 48 45 42 41 39 43 41 42 41 36 43 41 40 39 49 46 44 43 45 43 41 42 42 40
51 51 51 51 51 50 42 32 42 42 43 34 31 45 45 48 49 49 49 48 49 47 43 42 44 47 42 37 35 46 47 48 50 48 49 47 44 45 44 43 42 41 41 41
51 51 51 50 50 44 37 34 40 46 43 34 32 37 46 48 48 47 47 49 47 46 44 42 43 43 44 40 37 44 47 51 52 49 48 44 45 43 43 43 43 43 40 40
50 50 50 49 50 47 39 40 47 45 37 36 31 36 42 48 43 42 47 44 45 44 43 44 41 43 42 37 42 44 48 48 46 46 46 46 44 42 41 42 42 39 38 38
50 49 49 45 41 38 39 48 46 43 37 32 34 34 34 46 44 44 43 44 40 44 41 41 42 40 36 42 44 45 48 47 49 43 42 42 41 40 40 41 40 39 38 37
49 42 41 35 39 48 46 41 37 35 36 36 34 42 38 43 43 40 42 42 39 34 41 42 39 38 44 44 44 46 44 43 42 40 36 33 32 36 39 40 43 42 39 38
40 36 35 40 47 40 38 33 32 34 33 38 39 42 39 45 39 40 42 35 35 33 36 36 34 37 39 41 41 43 43 42 42 43 45 44 42 40 40 41 43 41 40 36
38 39 42 40 37 33 31 30 33 33 33 38 39 39 42 41 43 40 40 34 35 31 37 33 32 36 36 38 39 41 41 43 42 45 44 44 43 42 43 43 42 41 39 36
41 37 32 32 33 27 28 27 31 32 33 34 35 35 40 39 41 37 36 33 33 34 32 33 31 33 35 36 38 38 41 41 42 43 44 45 44 44 45 42 41 39 37 37
32 28 25 27 28 30 31 30 31 34 34 34 36 35 35 36 35 38 34 36 34 31 28 27 32 31 33 35 37 36 36 38 39 39 39 40 41 40 40 40 40 38 35 35
29 29 22 27 32 32 32 32 33 34 36 35 36 35 38 33 33 34 32 31 29 32 26 30 26 29 31 33 34 35 35 36 37 38 38 38 38 37 35 36 37 38 35 35
30 29 26 31 29 29 24 29 31 35 35 35 34 33 33 33 33 32 31 31 27 25 28 25 28 30 30 32 33 33 34 35 37 38 39 38 37 36 35 36 37 37 36 34
28 26 32 31 30 30 21 28 34 38 34 32 32 31 32 33 31 29 33 31 29 30 31 24 28 28 29 30 31 32 32 33 34 35 37 36 36 35 35 33 33 32 33 32
MSLP
1017.14 1016.39 1015.51 1014.61 1013.32 1011.91 1011.52 1012.06 1012.66 1013.03 1012.73 1012.67 1012.30 1011.83 1011.32 1010.30 1009.55 1008.59 1007.79 1007.44 1008.05 1009.04 1009.92 1010.66 1010.92 1011.17 1010.68 1010.82 1011.32 1012.35 1012.92 1014.00 1015.21 1014.83 1014.30 1014.37 1014.87 1015.40 1016.15 1016.82 1017.01 1016.48 1015.04 1009.86
1017.31 1016.58 1015.70 1014.77 1013.54 1012.78 1012.78 1013.04 1013.36 1013.01 1012.98 1012.68 1012.15 1011.64 1010.63 1010.02 1009.12 1007.99 1007.31 1007.13 1007.37 1008.58 1009.40 1010.22 1010.47 1010.64 1010.61 1010.67 1011.21 1011.96 1012.77 1014.05 1015.25 1014.98 1014.79 1014.55 1014.75 1014.89 1015.11 1015.70 1016.12 1014.88 1014.77 1009.66
1017.50 1016.80 1016.07 1015.12 1013.91 1013.28 1013.20 1013.55 1013.73 1013.31 1013.01 1012.62 1012.29 1011.74 1011.04 1010.14 1008.99 1008.27 1007.51 1007.42 1007.80 1008.74 1009.22 1009.25 1010.24 1010.75 1010.85 1010.83 1011.33 1011.85 1012.63 1013.97 1014.84 1014.98 1014.66 1014.46 1014.55 1014.35 1014.46 1014.98 1015.16 1013.54 1010.99 1009.08
1017.86 1017.10 1016.45 1015.52 1014.28 1013.20 1013.39 1013.75 1013.75 1013.28 1012.89 1012.20 1011.93 1011.52 1011.10 1010.15 1009.25 1008.39 1007.86 1007.88 1008.19 1008.63 1009.13 1009.50 1010.10 1010.61 1011.06 1011.31 1011.67 1012.13 1012.94 1014.35 1015.01 1014.80 1014.38 1014.18 1013.92 1013.69 1013.68 1013.79 1013.03 1012.96 1009.31 1009.19
1018.29 1017.59 1016.94 1016.05 1015.01 1013.73 1014.10 1014.40 1014.38 1013.65 1012.76 1012.26 1011.69 1011.06 1010.83 1010.06 1009.37 1009.00 1008.58 1008.50 1008.78 1008.68 1009.37 1009.53 1009.82 1010.20 1010.86 1011.31 1012.04 1012.59 1013.36 1014.58 1015.26 1014.99 1013.91 1013.54 1013.02 1012.30 1012.11 1011.92 1011.57 1010.81 1009.81 1008.04
1018.49 1017.98 1017.33 1016.67 1015.87 1014.90 1015.03 1015.30 1014.78 1014.33 1012.94 1012.29 1011.64 1010.87 1010.24 1009.94 1009.59 1009.51 1009.37 1009.03 1009.23 1009.60 1009.85 1009.82 1009.93 1010.02 1010.47 1010.74 1011.52 1012.53 1013.60 1014.60 1015.37 1014.84 1013.56 1012.89 1011.72 1010.10 1010.01 1009.80 1009.45 1009.44 1008.75 1007.53
1018.54 1018.19 1017.66 1017.15 1016.60 1016.37 1016.16 1016.01 1015.58 1014.71 1013.41 1012.13 1011.17 1010.57 1010.24 1010.11 1009.83 1009.71 1009.77 1009.40 1009.63 1010.25 1009.98 1010.03 1010.21 1010.53 1010.85 1011.06 1011.44 1012.09 1013.44 1014.48 1014.92 1014.67 1013.64 1012.13 1009.47 1008.41 1008.36 1008.68 1008.38 1008.17 1007.93 1007.26
1018.64 1018.27 1017.87 1017.45 1017.03 1016.59 1016.68 1016.23 1016.13 1015.60 1014.36 1012.79 1011.36 1010.78 1010.58 1010.47 1010.31 1010.13 1010.20 1010.29 1010.41 1010.29 1010.40 1010.65 1010.91 1011.24 1011.44 1011.38 1011.69 1012.14 1012.77 1013.81 1014.30 1014.36 1013.39 1011.10 1008.81 1008.15 1008.14 1008.24 1007.71 1007.37 1007.29 1007.04
1018.58 1018.38 1017.98 1017.68 1017.30 1016.82 1016.70 1016.38 1016.18 1016.00 1015.12 1013.27 1012.39 1011.09 1010.45 1010.65 1010.68 1010.62 1010.65 1010.67 1010.49 1010.48 1010.86 1011.08 1011.20 1011.14 1011.12 1011.59 1011.87 1012.16 1012.70 1013.12 1013.74 1013.57 1012.84 1010.75 1008.40 1007.61 1007.59 1007.90 1007.38 1006.70 1006.91 1006.97
1018.35 1018.15 1017.89 1017.66 1017.33 1017.01 1016.88 1016.78 1016.21 1016.05 1015.39 1013.33 1012.91 1011.69 1010.92 1010.16 1010.52 1010.87 1010.78 1010.77 1010.84 1010.90 1011.21 1011.38 1011.54 1011.28 1010.94 1011.27 1011.60 1011.96 1012.23 1012.57 1012.66 1012.68 1012.02 1009.87 1007.83 1007.30 1007.61 1007.69 1007.05 1006.35 1006.56 1007.01
1018.11 1017.93 1017.67 1017.36 1017.16 1017.05 1017.13 1017.04 1016.49 1016.40 1015.69 1014.02 1013.25 1012.64 1011.93 1011.12 1010.53 1010.90 1011.08 1011.15 1011.17 1011.36 1011.46 1011.66 1011.52 1011.57 1011.14 1010.90 1010.71 1010.78 1010.96 1011.31 1011.40 1011.46 1010.95 1008.99 1006.78 1007.40 1007.42 1006.25 1005.94 1006.09 1006.37 1007.22
1017.67 1017.57 1017.38 1017.18 1017.04 1016.70 1016.74 1017.28 1016.67 1016.29 1016.25 1014.27 1013.28 1012.65 1012.30 1011.97 1011.03 1010.67 1010.73 1010.73 1010.60 1010.78 1011.14 1011.59 1011.62 1011.48 1011.34 1011.05 1010.58 1009.73 1009.90 1009.28 1009.51 1009.39 1008.43 1006.84 1006.35 1006.24 1006.02 1006.08 1006.22 1006.27 1006.60 1007.39
1017.45 1017.16 1016.97 1016.89 1016.78 1016.62 1016.58 1016.85 1016.70 1016.52 1015.76 1013.95 1013.05 1011.35 1010.17 1010.37 1010.40 1010.15 1010.39 1010.31 1010.31 1010.51 1010.47 1011.22 1011.55 1011.51 1011.32 1010.99 1010.31 1009.57 1008.52 1008.07 1008.12 1008.13 1006.75 1006.60 1006.35 1006.22 1006.32 1006.43 1006.46 1006.50 1006.79 1007.64
1017.08 1016.82 1016.45 1016.24 1016.01 1015.98 1016.01 1016.43 1016.44 1016.65 1016.11 1014.65 1011.78 1010.16 1009.85 1009.39 1009.42 1009.57 1009.63 1009.76 1010.06 1010.44 1010.61 1011.13 1011.35 1011.37 1011.23 1010.65 1010.06 1009.69 1008.82 1008.08 1007.66 1007.32 1006.56 1006.37 1006.32 1006.34 1006.52 1006.75 1006.78 1006.90 1007.30 1007.88
1016.67 1016.45 1016.05 1015.79 1015.47 1015.35 1015.38 1015.63 1015.50 1015.65 1016.15 1014.34 1012.26 1010.87 1009.36 1009.20 1009.30 1009.43 1009.47 1009.75 1010.18 1010.73 1011.04 1011.14 1011.15 1010.93 1010.95 1010.35 1010.08 1008.92 1007.91 1007.31 1007.31 1006.59 1006.26 1006.28 1006.43 1006.53 1006.72 1007.11 1007.40 1007.57 1007.88 1008.69
1016.16 1015.89 1015.45 1015.17 1014.75 1014.72 1015.16 1015.24 1014.67 1014.65 1015.04 1015.14 1012.81 1009.73 1009.07 1009.20 1009.24 1009.45 1009.66 1009.90 1010.23 1010.49 1010.77 1010.81 1010.55 1010.18 1010.43 1010.18 1009.25 1007.35 1006.84 1006.53 1006.29 1006.21 1006.08 1006.27 1006.52 1006.68 1007.04 1007.53 1007.91 1008.10 1008.45 1009.00
1015.54 1015.19 1014.86 1014.46 1014.14 1014.26 1014.81 1014.80 1014.80 1014.45 1014.68 1014.84 1012.39 1009.65 1008.68 1009.06 1009.27 1009.69 1009.91 1009.99 1010.38 1010.63 1010.69 1010.69 1010.36 1010.19 1010.14 1009.66 1008.81 1007.42 1006.95 1006.50 1006.21 1005.99 1006.23 1006.54 1006.80 1006.98 1007.36 1007.82 1008.34 1008.63 1009.08 1009.55
1014.96 1014.57 1014.23 1013.97 1013.74 1013.93 1014.31 1014.22 1014.13 1014.82 1014.87 1014.22 1011.99 1009.29 1008.59 1008.80 1009.10 1009.60 1009.91 1010.18 1010.47 1010.48 1010.40 1010.28 1010.17 1010.01 1009.87 1009.33 1008.12 1007.49 1006.91 1006.22 1005.94 1005.81 1005.87 1006.04 1006.63 1007.33 1007.93 1008.32 1008.78 1009.35 1009.75 1010.21
1014.39 1013.91 1013.74 1014.16 1014.11 1014.19 1014.23 1014.13 1014.28 1014.51 1014.94 1013.47 1011.32 1009.35 1008.69 1008.58 1008.73 1009.32 1009.92 1010.03 1010.35 1010.24 1010.22 1009.92 1009.97 1009.74 1009.63 1008.90 1008.44 1007.92 1007.46 1007.34 1006.69 1006.55 1006.70 1006.94 1007.25 1007.79 1008.14 1008.55 1009.10 1009.65 1010.16 1010.55
1014.07 1013.85 1013.84 1014.15 1014.34 1014.15 1014.17 1014.32 1014.10 1014.15 1013.63 1012.99 1011.05 1009.02 1008.61 1008.65 1008.71 1009.27 1009.70 1009.96 1010.03 1010.13 1009.80 1009.79 1009.86 1009.57 1009.12 1009.15 1008.99 1008.49 1008.04 1007.62 1007.31 1007.01 1007.09 1007.23 1007.54 1007.86 1008.21 1008.56 1008.96 1009.48 1010.15 1010.74
1014.47 1014.66 1014.79 1014.48 1014.09 1014.11 1013.99 1013.71 1013.63 1013.07 1012.47 1011.35 1010.10 1009.14 1008.77 1008.64 1008.80 1009.09 1009.51 1009.88 1010.13 1010.24 1010.09 1010.19 1010.13 1009.97 1010.18 1009.93 1009.40 1008.78 1008.21 1007.71 1007.20 1006.85 1006.55 1006.32 1006.48 1007.21 1007.84 1008.41 1008.97 1009.43 1010.11 1010.99
1014.93 1015.00 1015.03 1014.84 1014.34 1013.97 1013.89 1013.30 1012.90 1012.40 1011.48 1010.57 1009.95 1009.49 1009.16 1009.20 1008.99 1009.28 1009.77 1010.09 1010.39 1010.35 1010.44 1010.74 1010.73 1010.92 1010.91 1010.53 1009.95 1009.30 1008.54 1007.74 1006.89 1006.24 1006.08 1006.17 1006.44 1006.90 1007.34 1008.00 1008.76 1009.53 1010.21 1011.16
1014.53 1014.62 1014.97 1014.64 1014.23 1013.95 1013.30 1012.78 1012.22 1011.82 1011.57 1011.16 1010.55 1010.04 1009.67 1009.60 1009.43 1009.80 1009.96 1010.20 1010.50 1010.56 1010.96 1011.06 1011.39 1011.76 1011.49 1011.20 1010.67 1009.91 1009.07 1008.17 1007.61 1006.94 1006.60 1006.35 1006.57 1006.87 1007.30 1007.93 1008.75 1009.56 1010.39 1011.21
1014.89 1014.77 1014.81 1014.23 1013.65 1013.24 1012.66 1012.61 1012.52 1012.34 1012.00 1011.55 1011.05 1010.54 1010.29 1010.19 1010.12 1010.09 1010.32 1010.38 1010.62 1011.14 1011.65 1012.04 1012.45 1012.59 1012.22 1011.78 1011.33 1010.66 1009.81 1009.09 1008.38 1008.05 1007.78 1007.32 1007.25 1007.60 1007.99 1008.52 1008.94 1009.58 1010.44 1011.26
1015.11 1015.06 1014.53 1013.73 1013.17 1013.09 1013.04 1012.92 1012.80 1012.52 1012.25 1011.87 1011.35 1011.03 1010.74 1010.77 1010.69 1010.57 1010.70 1010.96 1011.23 1011.57 1012.15 1012.90 1013.34 1013.17 1012.85 1012.23 1011.62 1011.12 1010.53 1009.91 1009.30 1008.84 1008.48 1008.27 1008.20 1008.39 1008.87 1009.30 1009.61 1009.97 1010.63 1011.30
1015.19 1014.91 1014.34 1013.66 1013.40 1013.49 1013.62 1013.42 1013.11 1012.71 1012.43 1012.06 1011.86 1011.49 1011.30 1011.03 1010.95 1011.03 1010.94 1011.35 1011.60 1012.25 1013.13 1013.71 1013.78 1013.67 1013.26 1012.75 1012.17 1011.62 1011.08 1010.51 1009.88 1009.46 1009.13 1008.99 1008.93 1008.95 1009.25 1009.79 1010.24 1010.60 1010.99 1011.55
1014.98 1014.51 1014.00 1013.88 1013.58 1013.41 1014.02 1013.69 1013.31 1012.86 1012.80 1012.56 1012.27 1011.97 1011.56 1011.39 1011.23 1011.37 1011.23 1011.83 1012.60 1013.31 1013.89 1014.22 1014.06 1013.95 1013.54 1013.11 1012.63 1012.08 1011.57 1011.02 1010.52 1010.12 1009.77 1009.61 1009.52 1009.65 1009.85 1010.32 1010.73 1011.03 1011.38 1011.90
Wind_Speed
25 27 29 30 32 19 6 3 4 4 3 2 2 2 4 8 2 7 6 4 6 8 6 5 5 8 2 12 11 8 5 5 4 10 6 8 4 7 6 5 5 5 2 11
24 26 28 30 31 19 3 3 2 2 0 3 3 5 3 2 5 5 4 3 4 13 6 6 3 4 3 10 9 9 7 1 1 3 4 3 5 7 6 4 2 12 5 10
24 26 28 29 30 19 4 2 3 3 1 3 1 3 5 6 6 5 5 6 14 6 3 2 8 3 3 3 4 9 9 4 6 5 5 4 3 4 6 9 6 9 20 25
24 26 28 28 30 25 3 2 1 2 3 2 5 2 4 4 5 5 7 7 6 6 3 4 5 6 4 4 3 4 4 2 1 6 8 5 8 11 11 13 17 13 25 22
22 24 26 26 27 21 4 3 4 5 4 2 4 1 2 3 4 7 5 5 9 11 5 1 5 8 5 5 3 4 2 2 0 6 10 8 8 11 13 15 17 21 24 28
20 21 23 23 25 15 3 3 3 2 5 3 2 3 3 3 1 4 4 2 7 9 4 4 3 5 3 7 8 6 5 4 1 5 5 8 5 8 11 7 6 9 11 18
18 19 20 22 22 19 2 2 2 3 5 2 1 2 3 5 3 4 3 7 5 1 4 2 5 6 4 4 5 6 6 4 2 4 5 1 5 5 6 8 8 8 10 13
13 17 17 19 20 21 2 2 2 2 4 4 4 4 4 3 4 3 3 4 2 1 1 2 3 2 2 2 5 6 5 3 2 2 2 8 5 1 3 6 6 4 5 8
13 12 15 16 17 18 4 2 1 2 3 2 6 5 4 4 2 1 2 1 3 3 2 2 4 3 2 3 2 6 7 5 3 2 2 4 3 2 3 4 5 5 6 5
13 13 12 12 12 15 4 3 4 1 3 2 5 3 2 2 3 1 1 2 1 2 1 2 2 2 1 4 7 4 5 4 7 6 4 8 8 4 5 2 6 4 2 1
13 14 14 14 11 10 5 4 3 2 2 8 6 5 4 6 3 4 3 3 2 1 2 2 2 2 2 1 4 7 7 6 4 4 4 8 5 5 4 6 3 2 1 5
13 13 14 13 12 12 5 1 4 2 4 6 3 14 16 10 9 2 1 2 3 4 3 1 1 2 1 2 3 3 3 7 6 8 8 7 4 7 2 1 3 3 2 4
13 14 14 14 14 13 7 3 3 2 3 5 3 8 7 11 12 5 3 2 3 1 3 3 1 3 1 2 5 3 4 5 4 2 6 8 6 1 2 2 3 3 4 8
15 15 15 15 14 13 12 3 3 1 3 4 7 3 6 4 5 5 3 3 4 4 3 2 2 1 3 3 4 3 4 5 2 5 8 2 1 0 1 0 1 3 5 5
17 16 16 16 16 16 8 3 5 6 4 4 6 12 6 3 4 5 3 5 4 2 2 2 3 2 2 3 2 4 4 7 4 5 5 3 3 1 1 3 2 4 8 5
16 17 16 17 17 14 2 3 2 4 5 2 5 4 4 4 5 6 4 3 2 2 2 3 2 2 3 3 4 6 6 4 7 7 3 2 3 4 3 4 4 4 7 7
17 18 18 18 16 1 3 3 1 9 3 2 4 3 4 6 4 2 2 2 1 2 2 2 2 2 4 3 7 5 8 14 12 3 4 2 4 4 4 6 6 8 7 7
19 21 17 11 1 4 2 3 7 4 0 3 4 2 3 4 3 3 3 3 2 2 2 1 3 1 2 4 5 8 9 11 6 7 5 4 6 7 6 6 8 8 8 8
21 14 5 2 0 0 0 5 9 3 3 3 3 0 4 2 3 3 2 2 3 3 3 3 3 2 4 3 7 10 11 7 6 3 4 5 5 7 7 8 7 9 7 8
13 4 1 1 1 3 2 1 2 2 3 4 4 3 3 2 2 2 3 2 2 2 2 2 2 3 0 8 9 9 9 7 6 4 2 1 2 7 7 8 8 8 8 8
3 3 2 3 6 2 2 2 3 2 3 3 4 2 3 3 3 2 1 2 1 1 2 2 2 1 5 10 12 12 11 9 8 7 7 6 5 9 9 8 8 9 9 9
3 3 3 2 1 1 2 3 2 4 2 1 2 2 2 1 1 3 0 2 1 3 1 1 2 1 7 10 12 14 13 12 11 7 7 4 5 7 10 10 11 11 11 12
0 1 1 2 2 3 4 3 2 1 3 3 3 2 1 2 2 2 2 2 3 1 1 2 2 3 7 10 10 12 12 11 11 9 6 2 4 7 8 10 9 12 12 11
1 1 3 4 3 4 2 1 0 1 2 4 2 1 2 1 3 1 3 1 2 1 2 4 2 6 9 10 9 10 13 12 8 8 8 5 5 6 7 8 11 13 12 12
1 2 4 5 2 1 1 0 1 1 2 2 1 2 1 2 1 2 2 1 3 4 4 1 3 5 7 9 10 10 10 9 7 5 5 4 4 6 7 5 6 9 11 11
1 3 3 2 1 1 3 2 2 1 2 1 1 1 1 2 2 2 5 3 5 2 1 3 3 6 6 7 9 9 9 8 7 5 4 1 3 5 6 7 7 8 10 10
3 3 3 2 2 1 3 1 1 2 1 1 0 3 4 1 2 2 2 1 2 1 1 2 3 5 6 6 7 8 8 8 7 6 5 2 3 5 6 7 4 6 6 8
Wind_Direction
356 356 354 356 349 355 23 56 57 275 330 10 304 353 326 337 92 274 276 131 99 141 147 125 179 179 241 185 156 184 167 128 187 221 224 187 159 190 162 145 254 237 214 274
356 358 357 359 357 12 337 55 66 262 30 13 350 335 334 253 358 349 26 63 135 144 157 138 189 105 22 169 147 159 170 203 32 342 33 174 201 204 201 217 25 242 265 263
359 1 2 359 2 2 72 73 54 314 210 189 19 326 23 343 312 337 19 55 116 138 136 173 156 103 54 103 107 153 135 163 167 188 202 123 235 230 217 200 233 270 243 278
1 4 0 1 0 358 80 14 304 208 289 335 124 52 16 353 356 2 18 17 97 144 103 82 114 107 86 63 96 77 104 149 320 273 266 233 221 236 233 234 247 248 281 280
1 5 3 3 5 358 66 34 355 346 311 8 27 112 210 280 357 15 6 86 63 58 82 98 149 126 143 186 143 132 77 205 264 280 256 242 254 253 245 244 253 255 263 272
360 6 5 6 11 10 35 332 302 286 286 306 120 251 192 79 107 350 51 337 90 63 32 62 83 79 104 144 150 162 145 139 73 273 322 323 288 233 214 220 205 250 269 286
355 3 7 5 10 16 318 360 292 318 295 355 225 54 53 81 15 125 26 33 86 39 7 42 51 53 63 95 144 132 144 153 160 266 342 275 230 247 203 216 247 242 271 291
355 351 4 5 8 6 2 359 21 325 288 309 313 183 136 107 68 76 73 37 27 11 39 92 138 142 46 239 172 144 134 142 194 245 221 274 292 223 210 184 273 223 256 291
346 348 350 357 4 3 17 298 268 311 311 220 312 262 155 175 169 110 118 65 346 46 97 123 181 180 153 154 123 179 157 172 165 207 289 261 254 279 109 112 268 234 223 266
343 336 344 342 353 360 13 281 339 230 282 264 353 344 285 192 117 116 147 157 32 44 116 138 154 243 240 169 166 174 175 180 216 225 258 281 248 219 142 334 252 240 239 2
335 335 332 334 344 351 30 279 341 359 280 284 280 304 316 337 87 149 216 77 308 82 115 139 154 191 274 310 161 174 168 164 191 181 226 265 196 97 200 228 253 274 281 150
325 331 324 323 329 330 4 298 303 276 226 268 289 271 256 243 236 334 156 269 156 176 111 196 140 241 238 246 271 169 200 187 185 189 212 235 246 228 281 345 256 288 194 142
325 324 323 319 318 317 305 223 261 336 278 280 249 239 249 207 224 209 172 290 185 78 155 132 136 249 311 251 245 312 277 196 234 148 267 247 260 82 58 347 284 289 133 149
322 318 315 316 311 304 301 179 223 170 278 270 274 252 266 168 169 200 206 150 71 95 66 117 151 237 172 248 279 238 238 337 248 268 282 15 233 247 289 353 15 56 112 147
319 315 313 308 315 300 291 223 217 198 200 301 292 311 232 162 168 184 173 130 118 140 120 147 211 199 216 224 246 245 204 200 203 230 263 219 251 236 219 141 138 119 118 103
318 312 313 313 316 313 100 301 36 200 164 258 272 298 165 158 173 166 160 158 119 122 170 202 220 232 156 248 259 249 235 243 237 263 232 222 158 139 141 130 138 114 110 123
317 316 315 318 312 279 160 210 79 3 110 230 262 243 129 139 115 92 91 67 117 174 209 223 228 231 190 242 267 271 302 300 292 288 187 200 198 205 144 126 116 114 96 95
321 319 315 319 317 101 240 253 199 118 90 255 268 268 114 164 136 133 150 147 160 191 240 201 215 192 215 256 271 298 292 292 295 287 198 174 122 114 121 121 120 113 116 119
325 322 336 50 244 45 350 344 111 110 221 279 263 8 123 181 101 93 126 150 179 167 214 230 148 218 232 290 304 310 336 329 306 63 83 123 139 157 150 142 138 139 141 135
326 33 130 105 30 299 275 110 231 215 212 225 264 279 90 177 119 162 138 179 184 205 211 123 197 256 41 10 338 327 324 317 302 213 260 171 183 177 174 175 166 159 153 140
14 20 331 318 320 234 192 253 233 189 246 210 244 289 126 356 106 120 21 161 134 208 241 189 230 208 341 338 331 328 325 310 293 272 276 213 189 177 167 170 160 145 145 143
212 275 279 267 295 241 231 232 218 226 264 323 321 353 40 68 46 101 274 135 71 240 70 148 237 87 318 334 332 330 326 327 317 290 241 237 193 171 166 159 157 159 134 138
307 148 310 228 170 244 228 210 223 198 347 344 335 341 26 46 42 57 98 149 211 95 148 230 198 301 334 338 332 331 335 349 352 353 353 315 175 151 160 144 138 137 138 141
47 89 262 212 180 245 228 159 175 1 311 331 318 328 89 24 70 127 172 210 100 222 235 235 350 327 321 328 330 336 339 341 349 352 340 356 128 118 120 140 146 143 148 153
254 144 237 216 241 330 355 353 310 290 289 315 350 349 28 36 109 196 122 135 226 218 214 115 263 298 315 326 334 338 339 339 336 338 352 5 102 117 108 115 140 143 146 158
242 240 274 241 56 242 350 315 260 233 329 325 65 355 94 228 189 150 215 205 221 212 112 244 309 321 319 330 334 332 331 332 334 339 336 3 137 145 142 139 151 152 155 152
230 243 224 249 275 121 218 217 313 348 78 243 60 206 192 77 177 230 231 238 76 79 325 270 295 308 311 324 330 337 334 336 336 333 338 325 133 124 126 133 121 119 120 120